This is the latest recevied weather packets stored in our database for station/object HI3FAM-13. If no packets are shown the sender has not sent any weather packets the latest 10 day(s).
| Time | Temp. | Humidity | Pressure | Rain* | Wind** | Luminosity | Snow |
|---|---|---|---|---|---|---|---|
| 1788625391 | 32.22° C | 55% | 1013 hPa | 0 mm | - | - | - |
| 1788624790 | 32.22° C | 56% | 1013 hPa | 0 mm | - | - | - |
| 1788624222 | 32.22° C | 57% | 1013 hPa | 0 mm | - | - | - |
| 1788623587 | 32.22° C | 58% | 1013 hPa | 0 mm | - | - | - |
| 1788622986 | 32.22° C | 66% | 1013 hPa | 0 mm | - | - | - |
| 1788622385 | 30.56° C | 66% | 1013 hPa | 0 mm | - | - | - |
| 1788621784 | 30.56° C | 67% | 1014 hPa | 0 mm | - | - | - |
| 1788621183 | 30.56° C | 70% | 1014 hPa | 0 mm | - | - | - |
| 1788620582 | 30.56° C | 72% | 1014 hPa | 0 mm | - | - | - |
| 1788619981 | 30.56° C | 74% | 1014 hPa | 0 mm | - | - | - |
| 1788619380 | 30.56° C | 79% | 1014 hPa | 0 mm | - | - | - |
| 1788618779 | 28.89° C | 79% | 1014 hPa | 0 mm | - | - | - |
| 1788618178 | 28.89° C | 82% | 1014 hPa | 0 mm | - | - | - |
| 1788617577 | 28.89° C | 88% | 1014 hPa | 0 mm | - | - | - |
| 1788612860 | 27.78° C | 91% | 1014 hPa | 0 mm | - | - | - |
| 1788612259 | 26.67° C | 91% | 1014 hPa | 0 mm | - | - | - |
| 1788611658 | 25° C | 91% | 1014 hPa | 0 mm | - | - | - |
| 1788611057 | 25° C | 91% | 1014 hPa | 0 mm | - | - | - |
| 1788610456 | 25° C | 94% | 1014 hPa | 0 mm | - | - | - |
| 1788609855 | 25° C | 94% | 1014 hPa | 0 mm | - | - | - |
| 1788609254 | 25° C | 97% | 1014 hPa | 0 mm | - | - | - |
| 1788608653 | 25.56° C | 98% | 1014 hPa | 0 mm | - | - | - |
| 1788608052 | 23.89° C | 98% | 1014 hPa | 0 mm | - | - | - |
| 1788607451 | 22.22° C | 98% | 1014 hPa | 0 mm | - | - | - |
| 1788606850 | 22.22° C | 98% | 1014 hPa | 0 mm | - | - | - |
* Rain latest hour (hover to see other rain measurements)
** Current wind speed in m/s (hover to see current wind gust speed)